Location: Derby
(52.9213°N, 1.4761°W)
Time: 14:26:53
(UTC+01:00)

S-56A Canister/Altair - All Passes

Search period start: 18 May 2025 00:00
Search period end: 28 May 2025 00:00
Orbit: 633 x 2485 km, 38.9° (Epoch: 17 May)

Date Brightness Start Highest point End Pass type
(mag) Time Alt. Az. Time Alt. Az. Time Alt. Az.
18 May - 14:02:44 10° S 14:04:25 11° SSE 14:05:58 10° SE daylight
18 May - 16:03:23 10° SW 16:07:01 17° S 16:10:09 10° SE daylight
18 May - 18:07:06 10° SW 18:09:22 13° SSW 18:11:31 10° SSE daylight
19 May - 13:28:18 10° S 13:29:55 11° SSE 13:31:26 10° SE daylight
19 May - 15:28:34 10° SW 15:32:37 18° S 15:36:01 10° SE daylight
19 May - 17:32:10 10° SW 17:35:01 15° SSW 17:37:37 10° SSE daylight
20 May - 12:53:58 10° SSE 12:55:24 11° SSE 12:56:44 10° SE daylight
20 May - 14:53:42 10° SW 14:58:11 18° S 15:01:51 10° SE daylight
20 May - 16:57:13 10° SW 17:00:40 17° SSW 17:03:41 10° SSE daylight
21 May - 12:19:52 10° SSE 12:20:50 10° SSE 12:21:45 10° SSE daylight
21 May - 14:18:46 10° SSW 14:23:42 19° S 14:27:40 10° SE daylight
21 May - 16:22:14 10° SW 16:26:17 19° S 16:29:42 10° SSE daylight
22 May - 13:43:48 10° SSW 13:49:11 19° S 13:53:28 10° SE daylight
22 May - 15:47:12 10° SW 15:51:54 20° S 15:55:41 10° SE daylight
22 May - 17:53:15 10° SW 17:54:03 10° SSW 17:54:49 10° SSW daylight
23 May - 13:08:48 10° SSW 13:14:38 20° SSE 13:19:13 10° ESE daylight
23 May - 15:12:07 10° SW 15:17:27 22° S 15:21:39 10° SE daylight
23 May - 17:17:19 10° SW 17:19:42 13° SSW 17:21:53 10° S daylight
24 May - 12:33:47 10° SSW 12:40:02 20° SSE 12:44:55 10° ESE daylight
24 May - 14:36:58 10° SW 14:42:59 24° S 14:47:34 10° SE daylight
24 May - 16:41:54 10° WSW 16:45:22 15° SSW 16:48:20 10° SSE daylight
25 May - 11:58:46 10° SSW 12:05:22 20° SSE 12:10:34 10° ESE daylight
25 May - 14:01:46 10° SW 14:08:28 26° S 14:13:27 10° SE daylight
25 May - 16:06:35 10° WSW 16:10:59 18° SSW 16:14:36 10° SSE daylight
26 May - 11:23:47 10° SSW 11:30:40 20° SSE 11:36:08 10° ESE daylight
26 May - 13:26:32 10° SW 13:33:53 27° S 13:39:18 10° ESE daylight
26 May - 15:31:16 10° WSW 15:36:35 21° SSW 15:40:46 10° SSE daylight
27 May - 10:48:50 10° SSW 10:55:56 19° SSE 11:01:38 10° ESE daylight
27 May - 12:51:15 10° SW 12:59:15 28° S 13:05:07 10° ESE daylight
27 May - 14:55:57 10° WSW 15:02:08 24° SSW 15:06:49 10° SE daylight
